カタログに戻る

KUIPER-00258

運用中通信VLEO
NORAD 69763·PAYLOAD·🇺🇸 United States

打ち上げ Jul 2, 2026 から Cape Canaveral Space Force Station

Loading…

次のパス (今後24時間)

TLE

最新Source: CelesTrak SupGP

元期: Sep 14, 2026, 20:58 UTC

1 69763C 26151A   26257.87402778 -.01087500  00000+0 -74491-1 0  2576
2 69763  51.8847 245.3761 0010682  34.2232 204.8501 15.06590992    14

AllMySatでKUIPER-00258をリアルタイム追跡

Download on the App Store